Weather History for Brunswick, GA

Change the Weather History Date:

Sunday, May 5, 2013

  Actual Average Record
Temperature  
Mean Temperature 70 °F -  
Max Temperature 78 °F 81 °F 95 °F (1952)
Min Temperature 62 °F 60 °F 40 °F (1986)
Cooling Degree Days 5    
Growing Degree Days 20 (Base 50)    
Moisture  
Dew Point 61 °F    
Average Humidity 75    
Maximum Humidity 100    
Minimum Humidity 36    
Precipitation  
Precipitation 0.00 in - - ()
Sea Level Pressure  
Sea Level Pressure 29.82 in    
Wind  
Wind Speed 12 mph (WSW)    
Max Wind Speed 17 mph    
Max Gust Speed 30 mph    
Visibility 9 miles    
Events Thunderstorm    
Averages and records for this station are not official NWS values.
T = Trace of Precipitation, MM = Missing Value Source: NWS Daily Summary

Daily Weather History Graph

Daily Weather History Graph

Search for Another Location

Airport:

Trip Planner

Search our weather history database for the weather conditions in past years. The results will help you decide how hot, cold, wet, or windy it might be!

Date:

Astronomy

May. 05, 2013 Rise Set
Actual Time 6:37 AM EDT 8:08 PM EDT
Civil Twilight 6:11 AM EDT 8:34 PM EDT
Nautical Twilight 5:40 AM EDT 9:05 PM EDT
Astronomical Twilight 5:07 AM EDT 9:38 PM EDT
Moon 3:50 AM EDT (5/5) 4:20 PM EDT (5/5)
Length of Visible Light 14h 22m
Length of Day
13h 30m
Waning Crescent, 18% of the Moon is Illuminated
May 5
Waning Crescent
May 9
New
May 18
First Quarter
May 25
Full
May 31
Last Quarter

Hourly Weather History & Observations

Time (EDT) Temp. Dew Point Humidity Pressure Visibility Wind Dir Wind Speed Gust Speed Precip Events Conditions
12:15 AM 71.6 °F 68.0 °F 88% 29.81 in 7.0 mi ESE 16.1 mph 20.7 mph N/A   Overcast
12:35 AM 71.6 °F 68.0 °F 88% 29.80 in 10.0 mi East 13.8 mph 21.9 mph N/A Thunderstorm Overcast
12:55 AM 71.6 °F 68.0 °F 88% 29.79 in 7.0 mi East 17.3 mph 23.0 mph N/A   Overcast
1:15 AM 71.6 °F 68.0 °F 88% 29.78 in 10.0 mi East 16.1 mph - N/A   Overcast
1:35 AM 71.6 °F 68.0 °F 88% 29.77 in 10.0 mi East 16.1 mph 21.9 mph N/A Thunderstorm Overcast
1:55 AM 71.6 °F 68.0 °F 88% 29.76 in 10.0 mi East 16.1 mph 26.5 mph N/A Thunderstorm Overcast
2:15 AM 71.6 °F 68.0 °F 88% 29.75 in 10.0 mi East 17.3 mph 29.9 mph N/A Thunderstorm Overcast
2:35 AM 71.6 °F 68.0 °F 88% 29.74 in 10.0 mi East 15.0 mph 25.3 mph N/A Thunderstorm Overcast
2:55 AM 71.6 °F 68.0 °F 88% 29.73 in 10.0 mi East 16.1 mph 27.6 mph N/A   Overcast
3:15 AM 71.6 °F 69.8 °F 94% 29.72 in 10.0 mi East 16.1 mph 20.7 mph N/A Thunderstorm Thunderstorm
3:35 AM 71.6 °F 69.8 °F 94% 29.72 in 10.0 mi East 17.3 mph 24.2 mph N/A   Overcast
3:55 AM 71.6 °F 69.8 °F 94% 29.73 in 7.0 mi ESE 16.1 mph 21.9 mph N/A Thunderstorm Thunderstorm
4:15 AM 71.6 °F 69.8 °F 94% 29.74 in 7.0 mi SE 11.5 mph 19.6 mph N/A Thunderstorm Thunderstorm
4:35 AM 71.6 °F 69.8 °F 94% 29.74 in 7.0 mi SE 12.7 mph 16.1 mph N/A Thunderstorm Thunderstorm
4:55 AM 71.6 °F 69.8 °F 94% 29.73 in 7.0 mi SE 13.8 mph 21.9 mph N/A Thunderstorm Overcast
5:15 AM 71.6 °F 69.8 °F 94% 29.72 in 7.0 mi ESE 6.9 mph 11.5 mph N/A Thunderstorm Overcast
5:35 AM 71.6 °F 69.8 °F 94% 29.72 in 7.0 mi ESE 11.5 mph 19.6 mph N/A Thunderstorm Overcast
5:55 AM 71.6 °F 69.8 °F 94% 29.73 in 7.0 mi WSW 12.7 mph 16.1 mph N/A   Overcast
6:15 AM 69.8 °F 68.0 °F 94% 29.74 in 10.0 mi West 8.1 mph - N/A   Overcast
6:35 AM 69.8 °F 68.0 °F 94% 29.75 in 10.0 mi SW 12.7 mph - N/A   Overcast
6:55 AM 66.2 °F 64.4 °F 94% 29.77 in 10.0 mi SW 13.8 mph - N/A   Overcast
7:15 AM 64.4 °F 64.4 °F 100% 29.80 in 5.0 mi WSW 11.5 mph - N/A Thunderstorm Overcast
7:35 AM 64.4 °F 64.4 °F 100% 29.81 in 5.0 mi WSW 8.1 mph - N/A   Overcast
7:55 AM 64.4 °F 64.4 °F 100% 29.82 in 7.0 mi West 8.1 mph - N/A   Overcast
8:15 AM 64.4 °F 64.4 °F 100% 29.82 in 10.0 mi West 4.6 mph - N/A   Overcast
8:35 AM 64.4 °F 64.4 °F 100% 29.82 in 10.0 mi West 5.8 mph - N/A   Overcast
8:55 AM 66.2 °F 64.4 °F 94% 29.82 in 10.0 mi West 10.4 mph - N/A   Overcast
9:15 AM 66.2 °F 62.6 °F 88% 29.84 in 10.0 mi West 9.2 mph 17.3 mph N/A Thunderstorm Overcast
9:35 AM 64.4 °F 62.6 °F 94% 29.85 in 7.0 mi West 10.4 mph 19.6 mph N/A   Overcast
9:55 AM 64.4 °F 62.6 °F 94% 29.86 in 10.0 mi WSW 11.5 mph 19.6 mph N/A   Overcast
10:15 AM 64.4 °F 62.6 °F 94% 29.86 in 10.0 mi West 13.8 mph 18.4 mph N/A   Overcast
10:35 AM 64.4 °F 62.6 °F 94% 29.87 in 10.0 mi West 11.5 mph 16.1 mph N/A   Overcast
10:55 AM 64.4 °F 60.8 °F 88% 29.86 in 10.0 mi West 16.1 mph 21.9 mph N/A   Overcast
11:15 AM 64.4 °F 60.8 °F 88% 29.87 in 10.0 mi West 15.0 mph - N/A Thunderstorm Overcast
11:35 AM 64.4 °F 60.8 °F 88% 29.87 in 10.0 mi West 11.5 mph - N/A   Overcast
11:55 AM 68.0 °F 62.6 °F 83% 29.87 in 10.0 mi West 8.1 mph - N/A   Mostly Cloudy
12:15 PM 69.8 °F 60.8 °F 73% 29.87 in 10.0 mi West 9.2 mph 17.3 mph N/A   Scattered Clouds
12:35 PM 71.6 °F 60.8 °F 69% 29.86 in 10.0 mi WNW 10.4 mph 18.4 mph N/A   Scattered Clouds
12:55 PM 73.4 °F 60.8 °F 65% 29.85 in 10.0 mi West 11.5 mph - N/A   Scattered Clouds
1:15 PM 73.4 °F 55.4 °F 53% 29.85 in 10.0 mi West 13.8 mph 20.7 mph N/A   Clear
1:35 PM 75.2 °F 53.6 °F 47% 29.84 in 10.0 mi NW 11.5 mph 18.4 mph N/A   Clear
1:55 PM 77.0 °F 55.4 °F 47% 29.84 in 10.0 mi West 8.1 mph - N/A   Clear
2:15 PM 77.0 °F 53.6 °F 44% 29.84 in 10.0 mi NW 10.4 mph - N/A   Clear
2:35 PM 77.0 °F 53.6 °F 44% 29.84 in 10.0 mi West 12.7 mph 17.3 mph N/A   Clear
2:55 PM 78.8 °F 55.4 °F 44% 29.84 in 10.0 mi West 11.5 mph 17.3 mph N/A   Clear
3:15 PM 78.8 °F 53.6 °F 42% 29.84 in 10.0 mi West 11.5 mph 20.7 mph N/A   Clear
3:35 PM 78.8 °F 51.8 °F 39% 29.83 in 10.0 mi West 13.8 mph 18.4 mph N/A   Clear
3:55 PM 78.8 °F 51.8 °F 39% 29.82 in 10.0 mi West 8.1 mph 18.4 mph N/A   Clear
4:15 PM 78.8 °F 51.8 °F 39% 29.82 in 10.0 mi West 10.4 mph 16.1 mph N/A   Clear
4:35 PM 78.8 °F 51.8 °F 39% 29.82 in 10.0 mi West 6.9 mph - N/A   Clear
4:55 PM 78.8 °F 51.8 °F 39% 29.82 in 10.0 mi West 8.1 mph - N/A   Clear
5:15 PM 78.8 °F 51.8 °F 39% 29.82 in 10.0 mi WSW 8.1 mph - N/A   Clear
5:35 PM 78.8 °F 50.0 °F 36% 29.82 in 10.0 mi WSW 6.9 mph - N/A   Clear
5:55 PM 78.8 °F 50.0 °F 36% 29.82 in 10.0 mi West 9.2 mph 16.1 mph N/A   Clear
6:15 PM 78.8 °F 50.0 °F 36% 29.82 in 10.0 mi West 8.1 mph - N/A Thunderstorm Clear
6:35 PM 78.8 °F 50.0 °F 36% 29.82 in 10.0 mi West 10.4 mph - N/A   Clear
6:55 PM 77.0 °F 51.8 °F 41% 29.82 in 10.0 mi West 8.1 mph - N/A   Clear
7:15 PM 77.0 °F 51.8 °F 41% 29.82 in 10.0 mi West 5.8 mph - N/A   Clear
7:35 PM 73.4 °F 53.6 °F 50% 29.83 in 10.0 mi WSW 3.5 mph - N/A   Clear
7:55 PM 69.8 °F 57.2 °F 64% 29.83 in 10.0 mi Calm Calm - N/A   Clear
8:15 PM 68.0 °F 57.2 °F 68% 29.84 in 10.0 mi Calm Calm - N/A   Clear
8:35 PM 66.2 °F 59.0 °F 78% 29.85 in 10.0 mi Calm Calm - N/A   Clear
8:55 PM 64.4 °F 59.0 °F 83% 29.85 in 10.0 mi Calm Calm - N/A   Clear
9:15 PM 64.4 °F 59.0 °F 83% 29.85 in 10.0 mi Calm Calm - N/A   Clear
9:35 PM 64.4 °F 59.0 °F 83% 29.86 in 10.0 mi Calm Calm - N/A   Clear
9:55 PM 62.6 °F 59.0 °F 88% 29.87 in 10.0 mi Calm Calm - N/A   Clear
10:15 PM 62.6 °F 59.0 °F 88% 29.87 in 10.0 mi Calm Calm - N/A   Clear
10:35 PM 62.6 °F 59.0 °F 88% 29.88 in 10.0 mi WSW 5.8 mph - N/A   Clear
10:55 PM 66.2 °F 57.2 °F 73% 29.88 in 10.0 mi SW 5.8 mph - N/A   Scattered Clouds
11:15 PM 68.0 °F 55.4 °F 64% 29.88 in 10.0 mi SW 5.8 mph - N/A   Mostly Cloudy
11:35 PM 68.0 °F 55.4 °F 64% 29.88 in 10.0 mi SSW 4.6 mph - N/A   Scattered Clouds
11:55 PM 64.4 °F 57.2 °F 77% 29.88 in 10.0 mi SW 4.6 mph - N/A   Clear